Weather in Praskoveya

Russia / Stavropol Krai     44°44′40″N   44°12′08″E
temp.,
°C
wind,
m/s
gust,
m/s
humid.,
%
clouds,
%
prec.,
mm/h
press.,
hPa
HPBL,
m
31 july, sat
sat3100:00+23se38450 0.0 1010133
03:00+21se33524 0.0 101029
06:00+21ese22512 0.0 101061
09:00+28e34354 0.0 1010779
12:00+32e442630 0.0 10091872
15:00+34ene34235 0.0 10082440
18:00+34se23255 0.0 10082002
21:00+27ese48360 0.0 1010175
1 august, sun
sun100:00+24e36443 0.0 1010106
03:00+23se22514 0.0 101028
06:00+23ese24565 0.0 1011129
09:00+30ese444022 0.0 1011754
12:00+34e43295 0.0 10101940
15:00+35e442720 0.0 10092612
18:00+35ene452849 0.0 10082622
21:00+29e51238100 0.7 1010441
2 august, mon
mon200:00+26se2245100 0.4 101020
03:00+24e2245100 0.4 101015
06:00+24e234586 0.0 101172
09:00+29e223297 0.0 1011793
12:00+33s112612 0.0 10101427
15:00+36se44223 0.0 10092304
18:00+34sse332841 0.0 10091261
21:00+27ssw610511 0.0 1010238
3 august, tue
tue300:00+24sw12630 0.0 101013
03:00+24ese22600 0.0 101013
06:00+24s22610 0.0 101162
09:00+31sse11351 0.0 1011637
12:00+35ese33220 0.0 10101685
15:00+37se33170 0.0 10082676
18:00+36se33170 0.0 1008648
21:00+30se22270 0.0 100917
4 august, wed
wed400:00+28wsw33350 0.0 100922
03:00+26w35340 0.0 101064
06:00+25w49501 0.0 1011208
09:00+32wnw78330 0.0 1011817
12:00+36nnw65265 0.0 10111638
15:00+37nnw43240 0.0 10102709
18:00+36n21245 0.0 10102502
21:00+31n593286 0.0 1011236